DW9525 Weather Reports


time (UTC)temp
C
wind
direction
speed
KPH
gust
KPH
rain 1hr
cm
rain 24hr
cm
rain mn
cm
humidity
%
barometer
mb
20260507123035 9 220 0.0 0.0 0.00 0.00 0.00 74 1023.9
20260507121525 9 226 0.0 0.0 0.00 0.00 0.00 75 1023.9
20260507120024 9 226 0.0 0.0 0.00 0.00 0.00 75 1024.0
20260507114511 9 352 0.0 0.0 0.00 0.00 0.00 75 1024.0
20260507113012 9 352 0.0 0.0 0.00 0.00 0.00 75 1024.0
20260507111509 9 352 0.0 0.0 0.00 0.00 0.00 75 1024.2
20260507110008 9 352 0.0 0.0 0.00 0.00 0.00 75 1024.2
20260507104507 9 353 0.0 0.0 0.00 0.00 0.00 75 1024.2
20260507103003 10 353 0.0 0.0 0.00 0.00 0.00 75 1024.2
20260507101503 10 352 0.0 0.0 0.00 0.00 0.00 75 1024.2
20260507100100 10 346 0.0 0.0 0.00 0.00 0.00 74 1024.2
20260507094553 10 345 0.0 0.0 0.00 0.00 0.00 75 1024.5
20260507093041 10 345 0.0 0.0 0.00 0.00 0.00 75 1024.5
20260507091533 10 345 0.0 0.0 0.00 0.00 0.00 74 1024.7
20260507090030 10 345 0.0 0.0 0.00 0.00 0.00 74 1024.9
20260507084529 10 323 0.0 0.0 0.00 0.00 0.00 74 1025.0
20260507083030 10 323 0.0 0.0 0.00 0.00 0.00 74 1025.2
20260507081536 10 324 0.0 0.0 0.00 0.00 0.00 74 1025.3
20260507080028 11 324 0.0 0.0 0.00 0.00 0.00 74 1025.4
20260507074528 11 324 0.0 0.0 0.00 0.00 0.00 74 1025.1
20260507073027 11 324 0.0 0.0 0.00 0.00 0.00 74 1025.1
20260507071513 11 324 0.0 0.0 0.00 0.00 0.00 73 1025.2
20260507070017 11 324 0.0 0.0 0.00 0.00 0.00 73 1025.3
20260507064555 12 324 0.0 0.0 0.00 0.00 0.00 73 1025.4
20260507063050 12 325 0.0 0.0 0.00 0.00 0.00 73 1025.5
20260507061539 12 325 0.0 0.0 0.00 0.00 0.00 73 1025.3
20260507060038 12 325 0.0 0.0 0.00 0.00 0.00 73 1025.5
20260507054538 12 325 0.0 0.0 0.00 0.00 0.00 72 1025.4
20260507053037 13 325 0.0 0.0 0.00 0.00 0.00 72 1025.4
20260507051537 13 325 0.0 0.0 0.00 0.00 0.00 72 1025.3
20260507050037 13 325 0.0 0.0 0.00 0.00 0.00 73 1025.2
20260507044547 14 325 0.0 0.0 0.00 0.00 0.00 73 1025.3
20260507043035 14 325 0.0 0.0 0.00 0.00 0.00 73 1025.2
20260507041523 15 325 0.0 0.0 0.00 0.00 0.00 73 1025.2
20260507040023 15 325 0.0 0.0 0.00 0.00 0.00 73 1025.1
20260507034523 16 325 0.0 0.0 0.00 0.00 0.00 72 1024.9
20260507033029 16 325 0.0 0.0 0.00 0.00 0.00 72 1024.8
20260507031529 17 325 0.0 0.0 0.00 0.00 0.00 70 1024.7
20260507030022 17 325 0.0 0.0 0.00 0.00 0.00 69 1024.5
20260507024522 18 326 0.0 0.0 0.00 0.00 0.00 68 1024.3
20260507023021 18 324 0.0 0.0 0.00 0.00 0.00 66 1024.2
20260507021503 19 323 0.0 0.0 0.00 0.00 0.00 65 1024.1
20260507020003 20 325 0.0 0.0 0.00 0.00 0.00 64 1023.9
20260507014557 20 356 0.0 0.0 0.00 0.00 0.00 64 1023.9
20260507013058 20 320 0.0 0.0 0.00 0.00 0.00 62 1023.8
20260507011553 21 326 0.0 0.0 0.00 0.00 0.00 61 1023.7
20260507010050 21 296 0.0 0.0 0.00 0.00 0.00 60 1023.6
20260507004549 21 268 0.0 0.0 0.00 0.00 0.00 60 1023.6
20260507003048 22 288 0.0 0.0 0.00 0.00 0.00 57 1023.6
20260507001549 22 301 0.0 0.0 0.00 0.00 0.00 55 1023.4
20260507000049 22 267 0.0 0.0 0.00 0.00 0.00 55 1023.4
20260506234545 22 307 0.0 0.0 0.00 0.00 0.00 53 1023.4
20260506233037 22 248 0.0 0.0 0.00 0.00 0.00 50 1023.4
20260506231535 22 325 0.0 0.0 0.00 0.00 0.00 51 1023.4
20260506230030 22 226 0.0 0.0 0.00 0.00 0.00 55 1023.5
20260506224529 22 283 0.0 0.0 0.00 0.00 0.00 55 1023.7
20260506223026 22 292 0.0 0.0 0.00 0.00 0.00 57 1023.9
20260506221524 21 293 0.0 0.0 0.00 0.00 0.00 57 1023.9
20260506220022 22 315 0.0 0.0 0.00 0.00 0.00 59 1024.1
20260506214503 22 311 0.0 0.0 0.00 0.00 0.00 60 1024.3
20260506213001 21 335 0.0 0.0 0.00 0.00 0.00 60 1024.4
20260506211550 21 311 0.0 0.0 0.00 0.00 0.00 61 1024.5
20260506210048 21 245 0.0 0.0 0.00 0.00 0.00 61 1024.6
20260506204548 21 323 0.0 0.0 0.00 0.00 0.00 60 1024.7
20260506203045 21 254 0.0 0.0 0.00 0.00 0.00 62 1024.7
20260506201543 21 331 0.0 0.0 0.00 0.00 0.00 60 1024.9
20260506200041 21 311 0.0 0.0 0.00 0.00 0.00 61 1025.1
20260506194538 20 195 0.0 0.0 0.00 0.00 0.00 63 1025.3
20260506193036 20 359 0.0 0.0 0.00 0.00 0.00 63 1025.5
20260506191533 20 290 0.0 0.0 0.00 0.00 0.00 65 1025.7
20260506190021 20 315 0.0 0.0 0.00 0.00 0.00 65 1025.8
20260506184521 20 333 0.0 0.0 0.00 0.00 0.00 66 1025.9
20260506183021 19 316 0.0 0.0 0.00 0.00 0.00 66 1026.0
20260506181518 20 300 0.0 0.0 0.00 0.00 0.00 66 1026.0
20260506180022 20 282 0.0 0.0 0.00 0.00 0.00 66 1026.0
20260506174516 20 306 0.0 0.0 0.00 0.00 0.00 65 1026.0
20260506173017 19 129 0.0 0.0 0.00 0.00 0.00 65 1026.0
20260506171511 18 101 0.0 0.0 0.00 0.00 0.00 66 1026.2
20260506170048 18 316 0.0 0.0 0.00 0.00 0.00 68 1026.3
20260506164548 18 349 0.0 0.0 0.00 0.00 0.00 68 1026.4
20260506163030 18 53 0.0 0.0 0.00 0.00 0.00 67 1026.5
20260506161519 17 77 0.0 0.0 0.00 0.00 0.00 68 1026.5
20260506160108 17 97 0.0 0.0 0.00 0.00 0.00 69 1026.5
20260506154554 16 124 0.0 0.0 0.00 0.00 0.00 72 1026.5
20260506153038 15 124 0.0 0.0 0.00 0.00 0.00 73 1026.6
20260506151531 13 124 0.0 0.0 0.00 0.00 0.00 73 1026.7
20260506150027 12 124 0.0 0.0 0.00 0.00 0.00 74 1026.7
20260506144527 11 124 0.0 0.0 0.00 0.00 0.00 74 1026.7
20260506143024 10 124 0.0 0.0 0.00 0.00 0.00 74 1026.7
20260506141515 9 124 0.0 0.0 0.00 0.00 0.00 74 1026.7
20260506140010 8 124 0.0 0.0 0.00 0.00 0.00 74 1026.7
20260506134505 7 124 0.0 0.0 0.00 0.00 0.00 74 1026.5
20260506133002 7 124 0.0 0.0 0.00 0.00 0.00 75 1026.2
20260506131603 7 124 0.0 0.0 0.00 0.00 0.00 75 1026.1
20260506130100 7 127 0.0 0.0 0.00 0.00 0.00 75 1026.0
20260506124552 7 127 0.0 0.0 0.00 0.00 0.00 75 1025.9